Location: Recife
(8.0585°S, 34.8848°W)
Time: 21:10:19
(UTC-03:00)

A-11 Canister half - Pass Details

Date: 16 April 2026
Orbit: 1523 x 1685 km, 47.3° (Epoch: 12 May)

Event Time Altitude Azimuth Distance (km) Brightness Sun altitude
Rises 12:09:43 0° 266° (W) 4,737 11.7 67.8°
Reaches altitude 10° 12:15:53 10° 237° (WSW) 3,723 11.2 66.9°
Maximum altitude 12:18:54 12° 217° (SW) 3,571 11.0 66.4°
Drops below altitude 10° 12:21:55 10° 198° (SSW) 3,703 11.0 65.9°
Sets 12:28:04 0° 167° (SSE) 4,677 11.3 64.9°
